{"data":{"norad_id":62600,"intl_designator":"2025-008P","name":"STARLINK-32747","alt_names":[],"object_type":"PAYLOAD","status":"ACTIVE","operator":null,"country":"US","launch_date":"2025-01-13","launch_site_code":"AFETR","launch_vehicle":null,"mission":null,"orbit_class":"UNKNOWN","rcs_meters":null,"size_class":null,"mass_kg":null,"dimensions":null,"purposes":["comms"],"wikipedia_slug":null,"has_3d_model":false,"image_url":null,"decayed_at":null,"tle_current":{"epoch":"2026-09-21T22:25:26.715072Z","epoch_age_seconds":47436,"freshness":"FRESH","line1":"1 62600U 25008P   26264.93433698  .00011257  00000+0  41795-3 0  9998","line2":"2 62600  43.0020 249.9695 0001959 272.0629  87.9998 15.27582233 95575","mean_motion":15.27582233,"eccentricity":0.0001959,"inclination_deg":43.002,"raan_deg":249.9695,"arg_perigee_deg":272.0629,"mean_anomaly_deg":87.9998,"bstar":0.00041795,"rev_number":9557,"period_min":94.266610915735,"perigee_km":481.69830459613,"apogee_km":484.38651468883,"semimajor_km":6861.1794096425,"source":"CELESTRAK","updated_at":"2026-09-22T09:00:49.632896Z"}}}